London-Corbin, KY

11:28 AM EDT on October 17, 2019 (GMT -0400)
London-Corbin / McKee

Weather History for KLOZ - September, 2019

Change the Weather History Date:

Monday, September 16, 2019

  Actual Average Record
Temperature  
Mean Temperature 76 °F 68 °F  
Max Temperature 94 °F 80 °F 94 °F (2019)
Min Temperature 58 °F 57 °F 36 °F (1961)
Degree Days  
Heating Degree Days 0 1  
Month to date heating degree days 0 6  
Since 1 July heating degree days 0 7  
Cooling Degree Days 11 4  
Month to date cooling degree days 177 101  
Year to date cooling degree days 1291 1125  
Growing Degree Days 25 (Base 50)    
Moisture  
Dew Point 61 °F    
Average Humidity 64    
Maximum Humidity 93    
Minimum Humidity 34    
Precipitation  
Precipitation T in 0.12 in 2.25 in (1962)
Month to date precipitation T 1.79  
Sea Level Pressure  
Sea Level Pressure 30.05 in    
Wind  
Wind Speed 2 mph (WSW)    
Max Wind Speed 16 mph    
Max Gust Speed 20 mph    
Visibility 10 miles    
Events Rain , Thunderstorm    
T = Trace of Precipitation, MM = Missing Value Source: NWS Daily Summary

Daily Weather History Graph

Daily Weather History Graph

Search for Another Location

Airport or City:

Astronomy

Sep. 16, 2019 Rise Set
Actual Time 7:19 AM EDT 7:42 PM EDT
Civil Twilight 6:53 AM EDT 8:08 PM EDT
Nautical Twilight 6:22 AM EDT 8:39 PM EDT
Astronomical Twilight 5:51 AM EDT 9:10 PM EDT
Moon 9:19 PM EDT (9/16) 9:23 AM EDT (9/16)
Length of Visible Light 13h 15m
Length of Day
12h 23m
Waning Gibbous, 94% of the Moon is Illuminated
Sep 16
Waning Gibbous
Sep 21
Last Quarter
Sep 28
New
Oct 5
First Quarter
Oct 13
Full

Hourly Weather History & Observations

Time (EDT) Temp. Heat Index Dew Point Humidity Pressure Visibility Wind Dir Wind Speed Gust Speed Precip Events Conditions
12:53 AM 63.0 °F - 55.9 °F 78% 30.09 in 10.0 mi Calm Calm - N/A   Clear
1:53 AM 62.1 °F - 55.9 °F 80% 30.09 in 10.0 mi Calm Calm - N/A   Clear
2:53 AM 61.0 °F - 57.0 °F 87% 30.09 in 10.0 mi Calm Calm - N/A   Clear
3:53 AM 60.1 °F - 57.0 °F 90% 30.08 in 10.0 mi Calm Calm - N/A   Clear
4:53 AM 59.0 °F - 57.0 °F 93% 30.09 in 10.0 mi Calm Calm - N/A   Clear
5:53 AM 59.0 °F - 55.9 °F 90% 30.09 in 10.0 mi Calm Calm - N/A   Clear
6:53 AM 59.0 °F - 55.9 °F 90% 30.11 in 10.0 mi Calm Calm - N/A   Clear
7:53 AM 60.1 °F - 57.0 °F 90% 30.12 in 10.0 mi Calm Calm - N/A   Clear
8:53 AM 64.9 °F - 57.0 °F 75% 30.13 in 10.0 mi Calm Calm - N/A   Clear
9:53 AM 72.0 °F - 57.9 °F 61% 30.14 in 10.0 mi Calm Calm - N/A   Clear
12:53 PM 89.1 °F 89.0 °F 61.0 °F 39% 30.09 in 10.0 mi Variable 3.5 mph - N/A   Clear
1:53 PM 91.0 °F 90.9 °F 61.0 °F 36% 30.06 in 10.0 mi West 9.2 mph - N/A   Mostly Cloudy
2:53 PM 91.9 °F 91.8 °F 61.0 °F 35% 30.04 in 10.0 mi North - - N/A   Scattered Clouds
3:53 PM 91.0 °F 90.9 °F 61.0 °F 36% 30.02 in 10.0 mi NNE 3.5 mph - N/A   Overcast
4:53 PM 90.0 °F 91.7 °F 64.9 °F 43% 30.00 in 10.0 mi East 6.9 mph - N/A   Mostly Cloudy
5:53 PM 87.1 °F 88.3 °F 64.0 °F 46% 29.99 in 8.0 mi ESE 4.6 mph - 0.00 in Rain Light Rain
6:05 PM 86.0 °F 87.6 °F 64.9 °F 49% 30.03 in 8.0 mi Calm Calm - 0.00 in Thunderstorm Overcast
6:12 PM 84.9 °F 86.1 °F 64.0 °F 49% 30.04 in 10.0 mi WNW 12.7 mph 18.4 mph 0.00 in Thunderstorm Thunderstorm
6:24 PM 82.0 °F 83.1 °F 63.0 °F 52% 30.04 in 10.0 mi WSW 15.0 mph - 0.00 in Thunderstorm Mostly Cloudy
6:33 PM 82.9 °F 84.0 °F 63.0 °F 51% 30.04 in 10.0 mi SW 12.7 mph - 0.00 in   Scattered Clouds
6:53 PM 82.0 °F 83.4 °F 64.0 °F 54% 30.00 in 10.0 mi SW 6.9 mph - 0.00 in   Clear
7:53 PM 80.1 °F 81.9 °F 64.9 °F 60% 30.00 in 10.0 mi Calm Calm - N/A   Mostly Cloudy
8:53 PM 80.1 °F 81.9 °F 64.9 °F 60% 30.00 in 10.0 mi NNW 4.6 mph - N/A   Overcast
9:53 PM 80.1 °F 82.3 °F 66.9 °F 64% 30.00 in 10.0 mi SW 3.5 mph - N/A   Mostly Cloudy
10:53 PM 77.0 °F - 68.0 °F 74% 30.01 in 10.0 mi Calm Calm - N/A   Overcast
11:53 PM 75.0 °F - 68.0 °F 79% 30.01 in 10.0 mi ESE 3.5 mph - N/A   Partly Cloudy